CZ-4 DEB, 26220

Orbit data source: Space-Track

CZ-4 DEB, 26220 is space debris in SSO originally from a launch on Thu, 14 Oct 1999 UTC launched from the Taiyaun Space Center, China (TSC). Debris objects in space refer to the collection of defunct objects orbiting the Earth. Examples of debris include non-operational satellites, rocket bodies, and fragments generated from explosions, collisions, or faulty payload assembly.

Loading next visibility...
Identifier
26220, 1999-057DJ
Orbit
SSO
Country
Flag of CNCN / PRC
Related business
Manufacturer
Unknown
Mission
Spacecraft
Bus & Motor
Unknown
Mass
Unknown
Launch date (UTC)
1999-10-14 (26 years ago)
Launch vehicle
Unknown
Launch site
Taiyaun Space Center, China (TSC)
Object type
Payload
Rocket body
Debris
Shape & HBR
Unknown shape, 1.7 m
Radar Cross Section
Large (>1 m²)

Expand to show TLE details & history
Last TLE update: 12 hours ago

TLE from 12 hours ago
0 CZ-4 DEB
1 26220U 99057DJ  25351.30422067  .00001221  00000-0  17366-3 0  9994
2 26220  98.6423  91.7219 0069408 151.6049 276.0815 14.77342272383213
Epoch: 2025-12-17T07:18Z
TLE epoch observation values (Epoch: 2025-12-17T07:18:04.665Z)
Latitude
65.50484°
Longitude
-123.35054°
Altitude
644.189 km
Speed
7.545 km/s
True Right ascension
04h 49m 22s
True Declination
65° 22' 22"
Sunlit
Object was in full shadow at epoch
Visualization orbit readout
Latitude
Unknown
Longitude
Unknown
Altitude
Unknown
Speed
Unknown
Apparent Right ascension
Unknown
Apparent Declination
Unknown
Sunlit
N/A
Visualization observer readout
Local Sidereal Time
18:19:23
Azimuth
Unknown
Elevation
Unknown
Doppler factor
Unknown
Orbital elements
Apogee altitude
683.48 km
Perigee altitude
586.129 km
Semi-major axis
7,012.942 km
Eccentricity
0.00694
Inclination
98.6423°
RAAN
91.7219°
Arg. of periapsis
151.6049°
True anomaly
275.28992°
Mean anomaly
276.0815°
Eccentric anomaly
275.68578°
Mean motion
3.69567 °/min
Orbital period
97.41 mins
BSTAR
0.00017366
Loading maneuver chart data...
Computing Atmospheric mass density...
Loading historical data...
Loading historical data...
Loading historical data...
Loading historical data...
Loading historical data...
Loading historical data...
Loading historical data...

Documentation

Showing up to 5 results
|